STARLINK-1613 (46165 NORAD) Tracking and Keplerian Element Data

This shows tracking and keplerian element data for the satellite.

Feedback or suggestion? Click here.




ElementValue
Catalog46165
NameSTARLINK-1613
Epoch Orbit1619
Epoch Day333.08334491
Epoch Year2020
RAAN329.9733
Inclination52.9981
Eccentricity0.0001466
Argument of Perigee60.0244
Mean Anonmoly306.0879
Mean Motion15.05594125
Decay Rate-0.00016174
L11 46165U 20057BA 20333.08334491 -.00016174 00000-0 -10930-2 0 9995
L22 46165 52.9981 329.9733 0001466 60.0244 306.0879 15.05594125 16194

Live tracking and technical data element details for STARLINK-1613 (NORAD 46165). STARLINK-1613 can be tracked NOW for your location showing map with azimuth and elevation plus other details from your city location.

Track the satellite on the map from your city or location and see movement details for azimuth, elevation, latitude, longitude, range, height, and movement on the map or in text.







IsCatalogInMostPopularTable: catalog: 46165, numindb: 16
Update: records affected: 1



GetName: 46165 STARLINK-1613

Hit Count: updated at: Sun, 29 Nov 2020 11:09:37 GMT